Gypsum, OH

10:25 PM EDT on August 23, 2016 (GMT -0400)
Keller

Weather History for KPCW - February, 2014

Change the Weather History Date:

Wednesday, February 19, 2014

  Actual Average (KTOL) Record (KTOL)
Temperature  
Mean Temperature 37 °F 29 °F  
Max Temperature 46 °F 37 °F 65 °F (1930)
Min Temperature 28 °F 21 °F -6 °F (1936)
Degree Days  
Heating Degree Days 28 36  
Month to date heating degree days 718  
Since 1 July heating degree days 4267  
Cooling Degree Days 0 0  
Month to date cooling degree days 0  
Year to date cooling degree days 0  
Moisture  
Dew Point 31 °F    
Average Humidity 71    
Maximum Humidity 93    
Minimum Humidity 46    
Precipitation  
Precipitation 0.00 in 0.08 in 0.44 in (1986)
Month to date precipitation 1.36  
Year to date precipitation 3.41  
Snow  
Snow 0.00 in 0.30 in - ()
Month to date snowfall 6.7  
Since 1 July snowfall 27.8  
Snow Depth -    
Sea Level Pressure  
Sea Level Pressure 29.82 in    
Wind  
Wind Speed 12 mph (SW)    
Max Wind Speed 20 mph    
Max Gust Speed -    
Visibility 10 miles    
Events      
T = Trace of Precipitation, MM = Missing Value Source: NWS Daily Summary

Daily Weather History Graph

Daily Weather History Graph

Search for Another Location

Airport or City:

Trip Planner

Search our weather history database for the weather conditions in past years. The results will help you decide how hot, cold, wet, or windy it might be!

Date:

Astronomy

Feb. 19, 2014 Rise Set
Actual Time 7:21 AM EST 6:10 PM EST
Civil Twilight 6:52 AM EST 6:38 PM EST
Nautical Twilight 6:20 AM EST 7:10 PM EST
Astronomical Twilight 5:48 AM EST 7:42 PM EST
Moon 11:06 PM EST (2/19) 9:22 AM EST (2/19)
Length of Visible Light 11h 45m
Length of Day
10h 49m
Waning Gibbous, 80% of the Moon is Illuminated
Feb 19
Waning Gibbous
Feb 22
Last Quarter
Mar 1
New
Mar 8
First Quarter
Mar 16
Full

Hourly Weather History & Observations

Time (EST) Temp. Windchill Dew Point Humidity Pressure Visibility Wind Dir Wind Speed Gust Speed Precip Events Conditions
12:14 AM 46.4 °F 40.4 °F 26.6 °F 46% 29.70 in 10.0 mi South 13.8 mph - N/A   Clear
12:34 AM 46.4 °F 40.7 °F 26.6 °F 46% 29.69 in 10.0 mi SSW 12.7 mph - N/A   Partly Cloudy
12:53 AM 44.6 °F 38.1 °F 26.6 °F 49% 29.69 in 10.0 mi SSW 13.8 mph - N/A   Scattered Clouds
1:14 AM 44.6 °F 38.8 °F 26.6 °F 49% 29.67 in 10.0 mi South 11.5 mph - N/A   Partly Cloudy
1:34 AM 46.4 °F 39.8 °F 28.4 °F 50% 29.66 in 10.0 mi SSW 16.1 mph - N/A   Clear
1:54 AM 45.9 °F 39.1 °F 28.0 °F 50% 29.65 in 10.0 mi SSW 16.1 mph - N/A   Clear
2:13 AM 46.4 °F 40.7 °F 28.4 °F 50% 29.65 in 10.0 mi SSW 12.7 mph - N/A   Clear
2:34 AM 44.6 °F 38.4 °F 28.4 °F 53% 29.64 in 10.0 mi SSW 12.7 mph - N/A   Clear
2:54 AM 45.0 °F 38.5 °F 30.0 °F 56% 29.63 in 10.0 mi SSW 13.8 mph - N/A   Clear
3:13 AM 44.6 °F 38.8 °F 30.2 °F 57% 29.62 in 10.0 mi SSW 11.5 mph - N/A   Clear
3:34 AM 42.8 °F 36.6 °F 30.2 °F 61% 29.61 in 10.0 mi SSW 11.5 mph - N/A   Clear
3:54 AM 43.0 °F 37.2 °F 30.0 °F 60% 29.61 in 10.0 mi SSW 10.4 mph - N/A   Clear
4:13 AM 42.8 °F 37.5 °F 30.2 °F 61% 29.60 in 10.0 mi SSW 9.2 mph - N/A   Clear
4:34 AM 42.8 °F 37.5 °F 30.2 °F 61% 29.61 in 10.0 mi SSW 9.2 mph - N/A   Clear
4:54 AM 41.0 °F 35.2 °F 31.1 °F 68% 29.60 in 10.0 mi SSW 9.2 mph - N/A   Clear
5:14 AM 41.0 °F 35.2 °F 30.2 °F 65% 29.61 in 10.0 mi SSW 9.2 mph - N/A   Clear
5:34 AM 39.2 °F 33.6 °F 30.2 °F 70% 29.61 in 10.0 mi SSW 8.1 mph - N/A   Clear
5:54 AM 39.9 °F 33.9 °F 31.1 °F 71% 29.61 in 10.0 mi SSW 9.2 mph - N/A   Clear
6:14 AM 39.2 °F 33.6 °F 30.2 °F 70% 29.62 in 10.0 mi SSW 8.1 mph - N/A   Clear
6:34 AM 39.2 °F 33.6 °F 30.2 °F 70% 29.62 in 10.0 mi SSW 8.1 mph - N/A   Clear
6:54 AM 38.8 °F 33.2 °F 30.0 °F 71% 29.61 in 10.0 mi SSW 8.1 mph - N/A   Clear
7:14 AM 37.4 °F 31.4 °F 30.2 °F 75% 29.61 in 10.0 mi SSW 8.1 mph - N/A   Clear
7:34 AM 37.4 °F 32.1 °F 30.2 °F 75% 29.62 in 10.0 mi SW 6.9 mph - N/A   Clear
7:54 AM 36.9 °F 31.4 °F 30.0 °F 76% 29.63 in 10.0 mi SSW 6.9 mph - N/A   Clear
8:14 AM 37.4 °F 32.1 °F 30.2 °F 75% 29.64 in 10.0 mi SSW 6.9 mph - N/A   Clear
8:33 AM 39.2 °F 33.0 °F 30.2 °F 70% 29.65 in 10.0 mi SW 9.2 mph - N/A   Clear
8:54 AM 39.9 °F 33.4 °F 31.1 °F 71% 29.66 in 10.0 mi SW 10.4 mph - N/A   Clear
9:14 AM 39.2 °F 32.0 °F 32.0 °F 75% 29.67 in 10.0 mi WSW 11.5 mph - N/A   Clear
9:34 AM 42.8 °F 36.6 °F 33.8 °F 70% 29.68 in 10.0 mi West 11.5 mph - N/A   Clear
9:54 AM 41.9 °F 34.3 °F 32.0 °F 68% 29.69 in 10.0 mi West 15.0 mph - N/A   Clear
10:14 AM 41.0 °F 33.1 °F 32.0 °F 70% 29.70 in 10.0 mi West 15.0 mph - N/A   Clear
10:34 AM 41.0 °F 33.9 °F 32.0 °F 70% 29.72 in 10.0 mi West 12.7 mph - N/A   Clear
10:54 AM 41.0 °F 33.5 °F 32.9 °F 73% 29.73 in 10.0 mi West 13.8 mph - N/A   Clear
11:14 AM 41.0 °F 33.9 °F 32.0 °F 70% 29.75 in 10.0 mi West 12.7 mph - N/A   Clear
11:34 AM 41.0 °F 33.1 °F 32.0 °F 70% 29.76 in 10.0 mi West 15.0 mph - N/A   Mostly Cloudy
11:54 AM 41.0 °F 32.8 °F 32.0 °F 70% 29.78 in 10.0 mi West 16.1 mph - N/A   Mostly Cloudy
12:14 PM 42.8 °F 34.5 °F 32.0 °F 66% 29.79 in 10.0 mi WNW 18.4 mph - N/A   Partly Cloudy
12:34 PM 39.2 °F 29.6 °F 32.0 °F 75% 29.81 in 10.0 mi WNW 19.6 mph - N/A   Mostly Cloudy
12:54 PM 39.2 °F 31.2 °F 33.8 °F 81% 29.81 in 10.0 mi WNW 13.8 mph - N/A   Mostly Cloudy
1:13 PM 39.2 °F 31.6 °F 32.0 °F 75% 29.83 in 10.0 mi WNW 12.7 mph - N/A   Overcast
1:34 PM 41.0 °F 34.3 °F 32.0 °F 70% 29.84 in 10.0 mi WNW 11.5 mph - N/A   Overcast
1:54 PM 41.9 °F 35.0 °F 32.0 °F 68% 29.84 in 10.0 mi West 12.7 mph - N/A   Scattered Clouds
2:14 PM 42.8 °F 37.0 °F 33.8 °F 70% 29.85 in 10.0 mi West 10.4 mph - N/A   Partly Cloudy
2:34 PM 42.8 °F 36.6 °F 33.8 °F 70% 29.87 in 10.0 mi West 11.5 mph - N/A   Clear
2:54 PM 43.0 °F 35.4 °F 32.0 °F 65% 29.89 in 10.0 mi West 16.1 mph - N/A   Clear
3:14 PM 42.8 °F 34.8 °F 33.8 °F 70% 29.90 in 10.0 mi West 17.3 mph - N/A   Clear
3:34 PM 42.8 °F 37.0 °F 33.8 °F 70% 29.91 in 10.0 mi WSW 10.4 mph - N/A   Clear
3:53 PM 41.9 °F 34.3 °F 32.9 °F 70% 29.93 in 10.0 mi WSW 15.0 mph - N/A   Clear
4:14 PM 41.0 °F 32.8 °F 33.8 °F 76% 29.95 in 10.0 mi SW 16.1 mph - N/A   Clear
4:34 PM 41.0 °F 32.8 °F 33.8 °F 76% 29.95 in 10.0 mi SW 16.1 mph - N/A   Clear
4:53 PM 39.9 °F 32.5 °F 32.0 °F 73% 29.97 in 10.0 mi SSW 12.7 mph - N/A   Clear
5:14 PM 39.2 °F 31.2 °F 32.0 °F 75% 29.98 in 10.0 mi SSW 13.8 mph - N/A   Clear
5:34 PM 39.2 °F 32.0 °F 32.0 °F 75% 29.99 in 10.0 mi SW 11.5 mph - N/A   Clear
5:54 PM 37.9 °F 30.9 °F 32.0 °F 79% 30.00 in 10.0 mi SSW 10.4 mph - N/A   Clear
6:14 PM 37.4 °F 30.3 °F 32.0 °F 81% 30.02 in 10.0 mi SSW 10.4 mph - N/A   Clear
6:34 PM 37.4 °F 30.8 °F 30.2 °F 75% 30.02 in 10.0 mi SSW 9.2 mph - N/A   Clear
6:54 PM 36.9 °F 29.6 °F 32.0 °F 83% 30.04 in 10.0 mi SSW 10.4 mph - N/A   Clear
7:14 PM 35.6 °F 28.0 °F 30.2 °F 81% 30.07 in 10.0 mi SSW 10.4 mph - N/A   Clear
7:33 PM 35.6 °F 28.0 °F 30.2 °F 81% 30.08 in 10.0 mi SSW 10.4 mph - N/A   Clear
7:54 PM 36.0 °F 29.0 °F 31.1 °F 82% 30.07 in 10.0 mi SSW 9.2 mph - N/A   Clear
8:13 PM 35.6 °F 29.9 °F 30.2 °F 81% 30.06 in 10.0 mi SSW 6.9 mph - N/A   Clear
8:34 PM 35.6 °F 29.2 °F 30.2 °F 81% 30.06 in 10.0 mi SSW 8.1 mph - N/A   Clear
8:54 PM 34.0 °F 28.8 °F 30.0 °F 85% 30.07 in 10.0 mi SSW 5.8 mph - N/A   Clear
9:13 PM 33.8 °F 28.6 °F 30.2 °F 87% 30.07 in 10.0 mi SSW 5.8 mph - N/A   Clear
9:34 PM 33.8 °F 28.6 °F 28.4 °F 81% 30.06 in 10.0 mi SSW 5.8 mph - N/A   Clear
9:54 PM 34.0 °F 28.8 °F 30.0 °F 85% 30.05 in 10.0 mi SSW 5.8 mph - N/A   Clear
10:14 PM 30.2 °F 24.3 °F 28.4 °F 93% 30.06 in 9.0 mi South 5.8 mph - N/A   Clear
10:34 PM 28.4 °F 24.6 °F 26.6 °F 93% 30.06 in 8.0 mi South 3.5 mph - N/A   Clear
10:54 PM 29.1 °F 24.1 °F 26.1 °F 88% 30.05 in 7.0 mi South 4.6 mph - N/A   Clear
11:14 PM 28.4 °F 23.3 °F 26.6 °F 93% 30.04 in 7.0 mi South 4.6 mph - N/A   Clear
11:34 PM 28.4 °F 22.2 °F 26.6 °F 93% 30.04 in 7.0 mi South 5.8 mph - N/A   Clear
11:54 PM 29.1 °F 23.0 °F 26.1 °F 88% 30.05 in 7.0 mi South 5.8 mph - N/A   Clear